Regional Weather Roundup
Issued by NWS

Home | Current Version | Previous Version | Graphics & Text | Print | Product List | Glossary On
Versions: 1 2 3 4 5 6 7 8 9 10 11 12 13 14 15 16 17 18 19 20 21 22 23 24 25 26 27 28 29 30 31 32 33 34 35 36 37 38 39 40 41 42 43 44 45 46 47 48 49 50
000
ASUS44 KMEG 301900
RWRTN
TENNESSEE HOURLY STATE WEATHER ROUNDUP
NATIONAL WEATHER SERVICE MEMPHIS TN
200 PM CDT THU JUL 30 2015

TNZ002-004-019-021-049-052-054-088>092-302000-
WEST TENNESSEE

CITY           SKY/WX    TMP DP  RH WIND       PRES   REMARKS
MEMPHIS INTL   SUNNY     91  64  40 N14       30.10F HX  92
NWS MEMPHIS      N/A     87 N/A N/A MISG        N/A
JACKSON        SUNNY     91  59  33 N13       30.11F HX  90
DYERSBURG        N/A    N/A N/A N/A MISG        N/A
PARIS          SUNNY     82  63  51 N7        30.13F
$$

TNZ008-025-027-028-033-062-065-066-302000-
NORTH MIDDLE TENNESSEE

CITY           SKY/WX    TMP DP  RH WIND       PRES   REMARKS
NASHVILLE      MOSUNNY   89  57  33 NE12G21   30.09F
CLARKSVILLE    SUNNY     85  62  46 N10       30.12S
CROSSVILLE     MOSUNNY   85  68  56 N8        30.12F
$$

TNZ061-075-076-078-094-096-097-302000-
SOUTH MIDDLE TENNESSEE

CITY           SKY/WX    TMP DP  RH WIND       PRES   REMARKS
FAYETTEVILLE   MOSUNNY   86  66  51 N13       30.07F
TULLAHOMA      SUNNY     86  68  54 N7        30.09F
WINCHESTER     MOSUNNY   88  72  58 N9        30.07F HX  94
MCMINNVILLE    SUNNY     86  70  58 NE8       30.08F HX  90
COLUMBIA       SUNNY     88  64  45 N9        30.08F
SHELBYVILLE    SUNNY     90  64  43 N12       30.09F HX  91
$$

TNZ017-018-042-046-047-302000-
NORTHEAST TENNESSEE

CITY           SKY/WX    TMP DP  RH WIND       PRES   REMARKS
TRI CITIES     PTSUNNY   87  70  56 N6        30.04F HX  92
ELIZABETHTON   PTCLDY    88  72  58 VRB7      30.03F HX  94
$$

TNZ012-013-036-069-073-074-302000-
CENTRAL EAST TENNESSEE

CITY           SKY/WX    TMP DP  RH WIND       PRES   REMARKS
KNOXVILLE      PTSUNNY   90  72  55 NW8       30.02F HX  97
OAK RIDGE      PTSUNNY   89  72  56 VRB3      30.04F HX  96
GATLINBURG       N/A     88  72  58 VRB5      30.02F HX  94
$$

TNZ083-085-099-302000-
SOUTHEAST TENNESSEE

CITY           SKY/WX    TMP DP  RH WIND       PRES   REMARKS
CHATTANOOGA    PTSUNNY   92  73  53 NE10      30.01F HX 100
$$

SKY/WX REPORTED AS FAIR MEANS FEW OR NO CLOUDS BELOW
12 THOUSAND FEET.



USA.gov is the U.S. government's official web portal to all federal, state and local government web resources and services.